Regional Weather Roundup
Issued by NWS

Home | Current Version | Previous Version | Text Only | Print | Product List | Glossary On
Versions: 1 2 3 4 5 6 7 8 9 10 11 12 13 14 15 16 17 18 19 20 21 22 23 24 25 26 27 28 29 30 31 32 33 34 35 36 37 38 39 40 41 42 43 44 45 46 47 48 49 50
000
ASUS45 KCYS 230210
RWRWY

WYOMING REGIONAL WEATHER ROUNDUP
NATIONAL WEATHER SERVICE CHEYENNE WY
800 PM MDT MON SEP 22 2014

NOTE:  "FAIR" INDICATES FEW OR NO CLOUDS BELOW 12,000 FEET
WITH NO SIGNIFICANT WEATHER AND/OR OBSTRUCTIONS TO VISIBILITY.

WYZ001-230300-
YELLOWSTONE NATIONAL PARK

CITY           SKY/WX    TMP DP  RH WIND       PRES   REMARKS
LK YELLOWSTONE   N/A     49  46  90 CALM      30.28R
W YELLOWSTONE  NOT AVBL

$$
WYZ002>013-054>058-071-098>099-230300-
NORTHERN WYOMING

CITY           SKY/WX    TMP DP  RH WIND       PRES   REMARKS
JACKSON        MOCLDY    54  48  82 SW10      30.20S
CODY           PTCLDY    66  43  42 W14G28    30.04R
GREYBULL       MOCLDY    71  47  42 CALM      29.95R
WORLAND        CLOUDY    69  47  45 CALM      29.97R
SHERIDAN       CLOUDY    62  50  64 CALM      29.95R
BUFFALO        CLOUDY    66  44  45 SW7       30.01S
GILLETTE       CLOUDY    66  48  52 W10       29.95R
HULETT         FAIR      70  45  40 MISG      29.96
NEWCASTLE      FAIR      68  46  45 E9        29.99

$$
WYZ014>020-022>026-101>103-230300-
CENTRAL WYOMING

CITY           SKY/WX    TMP DP  RH WIND       PRES   REMARKS
BIG PINEY      MOCLDY    51  47  86 E6        30.25S
PINEDALE       CLOUDY    50  46  87 NW5       30.26S
DUBOIS         MOCLDY    52  41  66 NW16G22   30.21R
LANDER         PTCLDY    66  38  35 CALM      30.08R
RIVERTON       PTCLDY    66  40  38 NW18G29   30.08R
CASPER         CLOUDY    67  41  38 W12       30.04S
DOUGLAS        CLOUDY    63  47  55 S6        30.05R

$$
WYZ021-027>030-104>119-230300-
SOUTHERN WYOMING

CITY           SKY/WX    TMP DP  RH WIND       PRES   REMARKS
EVANSTON       PTCLDY    57  42  57 W6        30.26R
KEMMERER       PTCLDY    54  43  66 W9        30.26R
FORT BRIDGER   FAIR      59  43  56 W8        30.28R
ROCK SPRINGS   MOCLDY    59  43  55 W12       30.22R
DIXON          LGT RAIN  56  50  81 CALM      30.27R
RAWLINS        MOCLDY    56  46  69 SW12      30.20R
SARATOGA       MOCLDY    54  43  66 W16G23    30.24R
LARAMIE        CLOUDY    55  42  61 W14       30.22F
CHEYENNE       CLOUDY    61  43  51 W14       30.17S
TORRINGTON     MOCLDY    61  57  87 SE7       30.04S
PINE BLUFFS    FAIR      57  54  88 W6        30.14S

$$


USA.gov is the U.S. government's official web portal to all federal, state and local government web resources and services.